CAPE
4258 4377 4282 4015 3932 3791 3710 3604 3482 3440 3357 3374 3436 3192 3017 2906 3069 3071 3414 3484 3238 2804 3022 3188 3438 3507 3116 3121 3176 3450 3845 3779 3848 4178 4263 4038 3756 3591 3603 3742 3292 2983 2563 2117 1769 2029 1630 1141 1337 1680 1597 1385 1351 1573 1292 1768 1411 1439 1416 1842 1380 1534 1167 1305 1282 1120 1387 1050 976 647 212 621 696 1137 1118 936 1500 788 770 772 1380 1310 1384 1294 553
4454 4623 4333 3846 3684 3810 3617 3578 3488 3195 3061 3058 3328 3502 3526 3313 3186 3450 3428 3618 3618 3018 2759 2799 3399 3782 3616 3554 3628 3801 4090 3984 3702 3973 4197 4057 3765 3620 3724 3882 3434 3030 2684 2411 2047 1926 1920 1338 1198 1740 1652 1456 1337 1159 1268 1066 1284 1036 1284 1132 1261 1355 1356 1121 1118 1188 1050 1366 1228 907 1167 903 789 791 1091 698 1349 962 804 859 888 1531 1045 847 746
4162 4269 3985 3803 3634 3634 3628 3574 3458 3281 2872 2685 2494 2769 3392 3479 3350 3513 3248 3145 3552 3461 3145 2616 3005 3810 3837 3980 3974 3840 4037 3971 3655 3818 4035 3967 3681 3321 3317 3863 3590 3183 2773 2540 2390 2119 2005 1638 1277 1382 1662 1585 1493 1211 1086 1183 893 946 1038 1043 1083 1054 1414 1401 1291 1087 1097 1324 1501 1136 699 1110 1071 1161 875 1028 986 1651 948 878 447 676 1019 805 499
3923 4014 3964 3755 3594 3875 3924 3798 3116 2823 2897 2772 2670 2467 2590 3051 3350 3258 3218 2915 3156 3453 3504 3156 3358 3686 3987 4179 4317 3991 3980 3970 3784 3655 3959 3901 3801 3647 3487 3488 3710 3368 2953 2614 2440 2321 2102 1893 1391 1102 1302 1778 1804 1690 1520 1340 1180 1263 1192 1232 1178 1082 1245 1430 1404 1415 1313 979 1493 1075 1124 905 1161 1294 1252 1258 720 969 1493 1023 551 348 520 880 758
3819 3629 3600 3506 3539 3743 3484 3494 3689 3375 3090 2769 2905 2346 2559 3075 3228 2985 2803 2820 3131 3292 3468 3754 3863 3960 3934 4210 4526 4282 3880 3924 3778 3538 3791 3986 3949 3716 3473 3290 3450 3449 3077 2749 2451 2425 2333 2056 1725 1276 1206 1547 2035 1826 1630 1577 1275 1374 1418 1384 1332 1278 1217 1597 1418 1315 1423 1314 1229 1342 1662 1530 1290 996 1017 1247 1022 874 1248 1323 1051 656 672 645 453
3585 3786 3665 3766 3624 3566 3568 3328 3197 3312 3180 2758 2611 2378 2482 2552 3195 3315 3440 3402 3100 3066 3519 3691 3959 4206 4002 4029 4381 4490 4101 3813 3812 3725 3518 3756 4048 3945 3625 3320 3286 3499 3287 2980 2814 2615 2540 2418 2003 1680 1460 1385 1694 1834 1702 1590 1606 1378 1420 1454 1446 1412 1360 1498 1883 1446 1089 1251 1379 1523 1543 1519 1589 1639 1002 938 1211 871 903 1071 1180 1180 1088 873 409
3918 3594 3872 3668 3741 3680 3795 3324 3273 3443 3240 2761 2482 2727 2736 2555 2622 3111 3386 3206 3048 2758 3366 3610 3795 4293 4244 4071 4085 4299 4261 3897 3839 3998 3909 3760 4091 4133 3848 3624 3378 3527 3611 3253 2986 2785 2659 2621 2325 1980 1720 1524 1500 1656 1768 1677 1723 1608 1466 1541 1585 1524 1426 1384 1625 1868 1454 1144 1226 1190 1364 1482 1412 1530 1489 1162 806 1062 1016 851 790 926 990 1052 933
3873 3973 4235 4083 3990 3514 3848 3619 3147 3374 3467 3253 2948 2715 2711 2574 2655 3075 3662 3455 3164 2790 2669 3619 3921 4034 4402 4267 4215 4162 4248 4145 4028 4198 4218 4190 4210 4208 4046 3758 3434 3605 3762 3628 3157 2785 2690 2653 2465 2201 1946 1797 1498 1525 1710 1718 1715 1699 1632 1603 1689 1604 1512 1506 1493 1460 1662 1588 1391 1249 947 1042 1358 1134 1757 1383 1192 933 1039 1130 906 834 848 1033 785
3877 3906 4364 4497 4278 4087 4085 3933 3436 3625 3742 3468 3049 2859 2768 2758 2758 2964 3587 3560 3231 2966 2406 2750 3709 3856 4296 4509 4314 4140 4074 4103 4016 4124 4297 4225 4118 4131 4147 3950 3756 3746 3943 3815 3592 3160 2872 2705 2654 2419 2228 2004 1536 1353 1441 1556 1706 1656 1727 1684 1651 1623 1545 1512 1626 1455 1307 1437 1607 1579 1453 936 959 1380 1135 1473 995 1017 1229 935 921 1162 1215 1156 1180
3971 3716 4158 4618 4570 4429 4389 4250 3972 3869 3827 3652 3342 3127 2913 2843 2816 2939 3250 3716 3615 3514 2972 2365 3282 3981 4134 4563 4563 4302 4022 3983 3742 3738 3826 4006 3990 3733 3994 4056 3887 3816 3966 3953 3831 3612 3159 2730 2735 2451 2237 2044 1728 1310 1202 1322 1526 1576 1690 1729 1682 1727 1672 1500 1604 1616 1461 1377 1400 1637 1468 1390 1038 897 1197 1217 1340 1273 1220 1321 969 1028 1169 1082 1106
4063 3897 4033 4793 4891 4795 4671 4575 4418 4227 4124 3835 3765 3525 3190 3136 2998 3111 3167 3593 3859 3963 3750 3104 2514 3689 4026 4292 4639 4511 4148 3877 3676 3650 3630 3596 3771 3753 3914 4240 4102 3856 3870 4016 3923 3832 3496 3127 3011 2753 2478 2289 2030 1634 1120 1139 1405 1480 1470 1601 1696 1776 1773 1710 1522 1630 1623 1498 1464 1473 1484 1331 1202 1018 886 1048 1129 1286 1026 1222 1182 1138 996 872 733
4206 4222 4289 5084 5244 5071 4871 4842 4818 4675 4441 4208 4202 4058 3666 3406 3360 3308 3290 3425 3911 4177 4034 3793 3230 2764 3860 4083 4306 4556 4429 3958 3802 3771 3658 3571 3521 3672 3703 3854 4076 3911 3737 3796 3942 3849 3767 3534 3179 2936 2715 2467 2298 2065 1713 1240 1115 1393 1402 1522 1623 1655 1652 1727 1620 1569 1616 1580 1528 1489 1412 1428 1357 1045 1022 874 985 1082 1139 1122 1178 1038 958 851 774
4480 4573 4531 5300 5477 5341 5216 5102 5087 5081 4894 4594 4490 4502 4262 3793 3574 3475 3397 3456 3687 4171 4288 4066 3850 3201 3154 4256 4356 4540 4685 4322 4164 3945 3748 3658 3613 3533 3699 3524 3443 3699 3592 3401 3502 3830 3765 3604 3364 3041 3041 2582 2422 2230 2037 1776 1436 1232 1350 1409 1578 1638 1619 1618 1587 1587 1571 1597 1523 1529 1482 1488 1454 1345 1114 949 1115 1044 1090 964 1060 1017 894 812 848
4396 4654 4697 5261 5652 5603 5466 5290 5271 5298 5279 5122 4966 4925 4706 4190 3712 3544 3496 3626 3773 3975 4195 4184 3987 3841 3402 3752 4424 4575 4681 4500 4312 4066 3764 3637 3622 3407 3645 3734 3465 3346 3549 3459 3147 3320 3804 3673 3415 3244 3102 3026 2604 2392 2224 2011 1813 1550 1290 1287 1447 1740 1671 1625 1581 1614 1676 1616 1582 1524 1617 1573 1439 1473 1407 1110 1236 1356 1230 888 671 955 1085 997 1116
3827 4961 4829 5256 5726 5727 5638 5462 5432 5503 5549 5445 5227 5194 5130 4755 4294 3920 3712 3847 3768 3965 4064 4154 4216 4070 3852 3562 4071 4526 4449 4538 4471 4236 3894 3622 3525 3421 3334 3538 3594 3601 3650 3777 3532 3051 3277 3685 3556 3301 3229 3381 2817 2617 2382 2234 2050 1849 1614 1300 1338 1731 1936 1727 1622 1640 1657 1860 1817 1648 1701 1713 1564 1736 1977 1662 1298 1512 1456 1282 1232 1158 1331 1546 1250
3682 5418 5034 5175 5627 5775 5761 5628 5615 5645 5694 5564 5360 5180 5198 5176 4828 4407 3962 3871 3938 4089 4329 3998 4128 4230 4181 3939 3652 3976 4119 4129 4405 4423 4234 3820 3556 3464 3200 3493 3428 3605 3747 3746 3822 3626 3255 3296 3526 3450 3226 3247 3226 2753 2574 2444 2214 2035 1840 1641 1404 1581 1801 1889 1713 1605 1583 1689 1876 1930 1798 1897 1963 2371 2072 1669 1795 1730 1514 1480 1534 1463 1344 1190 1036
3698 4984 5158 5002 5350 5760 5872 5862 5816 5948 5903 5680 5446 5194 5201 5391 5147 4641 4172 3944 4054 4245 4168 4030 4063 4248 4294 4276 3987 3698 3820 3782 3864 4185 4286 4188 3818 3498 3245 3436 3459 3413 3573 3781 3864 3890 3757 3507 3397 3495 3452 3257 3174 3040 2755 2586 2659 2402 2038 1812 1634 1618 1641 1755 1726 1718 1609 1517 1548 1624 1654 1660 1609 1473 1306 1169 1451 1359 1216 1182 1157 1002 1093 1109 982
4003 4462 5355 5113 5216 5769 5981 6035 6080 6032 6049 5993 5705 5454 5323 5437 5278 4844 4252 3872 3504 3664 4085 4172 4192 4220 4279 4365 4300 4142 4087 3949 3703 3812 4042 4196 4130 3874 3434 3362 3588 3510 3398 3599 3895 3958 3908 3566 3471 3548 3572 3476 3151 3189 2988 2743 2805 2790 2468 2200 2006 1873 1783 1701 1728 1564 1643 1586 1502 1447 1439 1391 1320 1287 1190 1021 967 1086 1194 880 840 810 632 807 756
4071 4211 5099 5286 5185 5689 6083 6195 6191 6125 6262 6088 5914 5828 5614 5449 5422 5194 4501 4036 3788 4114 4202 4248 4326 4356 4198 4180 4184 4146 4166 4019 3779 3770 3824 3994 4099 4069 3832 3497 3587 3658 3555 3518 3664 3966 4126 3820 3553 3430 3577 3602 3398 3214 3123 2904 2708 2994 2915 2656 2348 2104 1937 1796 1746 1596 1469 1455 1448 1382 1251 1198 1126 1063 1044 1019 845 1343 1134 1090 966 825 527 550 524
4104 4272 5017 5293 5133 5319 5916 6204 6223 6118 6183 6224 6085 5881 5615 5325 5479 5261 4795 4057 3908 3845 4076 4356 4436 4531 4226 4247 3949 4064 4164 4406 3962 3829 3798 3794 3835 3927 3903 3730 3570 3684 3785 3709 3607 3649 3890 4289 3941 3690 3399 3444 3571 3404 3210 2989 2706 2921 3060 2949 2735 2470 2164 1932 1807 1761 1513 1382 1223 1141 1084 1009 933 884 829 831 936 1283 936 1023 1044 652 476 338 321
4545 4638 5050 5090 5000 5230 5458 6065 6159 6322 6326 6230 5938 5644 5291 5127 4964 5176 4728 4414 4300 4142 3960 3934 3904 4502 4332 4642 4431 4158 4147 4447 4272 4132 3997 3852 3736 3718 3753 3748 3719 3775 3858 3716 3748 3685 3685 3742 4052 4045 3857 3518 3430 3639 3452 3214 2935 2767 2941 2918 2776 2612 2358 2071 1859 1696 1559 1402 1270 1105 934 812 725 651 623 612 796 939 990 1046 1076 897 630 356 253
4744 4877 4980 5106 5127 5167 5353 6092 6160 6106 6269 6461 6245 5874 5574 5245 5064 5211 4707 4995 4796 4672 4421 4065 3953 4052 4254 4687 4924 4865 4532 4035 4900 4186 4087 3992 3928 3776 3705 3672 3771 3967 3974 3958 3940 3826 3772 3852 3891 3968 4005 4009 3773 3536 3580 3427 3198 2912 2755 2610 2586 2603 2406 2147 2014 1732 1588 1424 1262 1115 966 798 678 619 624 660 835 976 1076 1111 1083 922 674 464 276
5290 5231 5120 5295 5584 5594 5784 6098 5988 5750 6016 6418 6374 5931 5726 5349 5208 5301 5290 5254 5377 5145 5138 4812 4519 4321 4496 4946 5048 5307 5510 5056 4235 4136 4050 3973 3891 3856 3890 3804 3684 3607 3976 4061 4069 4038 4021 3882 3887 3869 3894 3937 3954 3858 3679 3477 3404 3200 2963 2660 2476 2639 2572 2241 2048 1852 1632 1477 1312 1144 1034 882 761 678 626 652 843 1010 1060 1119 1110 980 672 458 351
5942 5597 5151 5249 5619 5771 5953 6176 6051 5678 5953 6242 6299 5979 5779 5498 5550 5609 5528 5467 5435 5495 5370 5329 4994 4591 4421 4773 4682 4763 5945 5588 5048 4436 4262 4170 4107 4027 3929 3776 3706 3769 3712 3994 4132 4148 4106 4154 3950 3729 3818 3881 3859 3847 3836 3728 3502 3366 3211 2999 2730 2542 2576 2359 2100 1872 1656 1465 1333 1156 1010 908 811 728 748 799 933 981 966 1036 1014 877 613 303 0
6315 5878 5572 5357 5472 5544 6037 6075 6162 5986 5996 6009 6074 6019 5826 5619 5620 5659 5647 5506 5443 5390 5539 5312 5348 5092 4903 4743 4764 4787 4807 5676 5503 4761 4471 4233 4144 4089 4008 3923 3932 3863 3788 3725 3678 3874 3913 3964 3952 3891 3778 3718 3756 3795 3717 3652 3612 3427 3197 3081 2934 2675 2364 2285 2116 1979 1752 1527 1344 1211 1068 961 902 848 858 854 910 856 862 914 999 716 294 0 0
6326 6062 5761 5798 5600 4982 5568 5828 6275 6129 6076 5877 6112 6084 5621 5457 5364 5661 5544 5594 5389 5390 5606 5256 5157 5089 5058 4758 4482 4479 5385 4869 4958 5254 4030 4152 4116 4085 4021 3926 3871 3813 3751 3716 3692 3635 3532 3582 3647 3694 3637 3619 3566 3569 3548 3504 3511 3405 3255 3083 2867 2659 2369 2125 2025 1951 1795 1574 1415 1233 1161 1036 1018 990 938 915 837 776 797 944 801 340 0 0 0
6173 6242 6134 5594 5805 5516 5335 5506 6094 5823 5964 5328 5185 5796 5722 5410 5224 5464 5217 4802 5004 5245 5129 4901 4847 4535 4589 4641 4514 4762 4936 4745 5118 4860 4562 4223 4015 3878 3919 3888 3868 3816 3726 3616 3581 3526 3547 3509 3418 3358 3292 3224 3209 3262 3294 3248 3216 3239 3285 3101 2889 2718 2596 2352 2036 1828 1732 1653 1548 1470 1392 1016 972 902 883 850 724 681 785 815 596 201 0 0 0
5502 5668 5449 5444 5775 5582 5613 5376 5426 4912 5159 5032 4604 4904 4692 4567 4715 5524 5213 5053 4914 4980 4876 4644 4592 4174 3864 4017 4352 4318 4316 4284 3786 3706 3627 3596 3595 3586 3566 3659 3785 3789 3747 3725 3711 3661 3571 3531 3473 3407 3355 3302 3170 3116 3149 3158 3090 3041 3018 2980 2896 2829 2733 2613 2318 2012 1876 1779 1676 1573 1468 1275 925 830 776 714 604 624 620 674 638 100 0 0 0
5415 5302 5085 4862 4757 5150 4649 5159 4933 4631 4910 4544 4057 4140 4408 4325 5385 4512 4457 4533 5059 5163 4916 5152 4764 4707 3767 4736 5486 5362 4037 3773 3662 3566 3541 3528 3546 3583 3624 3639 3675 3770 3793 3798 3796 3724 3697 3620 3500 3428 3392 3365 3264 3156 3091 3123 3124 3058 2991 2911 2765 2705 2640 2553 2422 2194 2028 1790 1628 1455 1370 1405 1323 998 730 622 483 506 479 572 544 0 0 0 0
5646 5010 4749 4621 4422 4532 4189 4082 4316 4522 4202 4133 4230 4218 4377 4508 4492 4113 4197 4171 4441 4406 4259 4058 3993 4514 4278 3991 3896 4126 4234 4053 3952 3793 3806 3744 3768 3692 3751 3770 3740 3740 3701 3686 3711 3704 3768 3744 3686 3603 3514 3477 3375 3329 3325 3270 3157 3118 3092 3052 2917 2720 2595 2570 2363 2162 1996 1949 1580 1386 1339 1271 1169 1017 759 519 386 456 457 607 543 45 0 0 0
6038 5630 5381 5396 5686 6150 4573 4375 4791 5401 4737 4343 4220 4503 4575 4352 4381 4297 4183 4149 4100 3970 3861 4013 3820 3794 3867 4099 4059 3961 3905 3864 3824 3788 3720 3697 3669 3624 3606 3618 3600 3572 3559 3498 3412 3305 3153 3307 3408 3371 3307 3229 3172 3148 3160 3056 3136 3171 3165 3093 3062 2993 2696 2431 2041 1971 1760 1505 1702 1315 830 867 1059 897 837 487 335 335 433 564 392 0 0 0 0
5122 4947 4880 4961 5177 5590 5944 6778 5172 6166 6314 4905 4105 4185 4282 4438 4331 4257 4099 3929 3868 3864 3861 3730 3691 3680 3702 3704 3716 3718 3728 3684 3638 3588 3504 3440 3399 3375 3397 3418 3377 3343 3192 2958 2743 2336 1912 2087 2252 2428 2604 2691 2746 2667 2642 2645 2701 2668 2677 2780 2856 2858 2898 2887 2652 2185 1618 1152 1008 1086 1100 873 852 928 945 778 292 306 395 472 152 0 0 0 0
4767 4557 4417 4825 5063 4934 5039 5583 6059 6679 6264 5517 4383 4089 3896 3815 4030 3986 3903 3875 3750 3642 3616 3605 3472 3356 3376 3409 3525 3535 3474 3421 3351 3306 3273 3208 3092 2892 2641 2410 1812 994 219 0 0 0 1 237 820 1278 1584 1722 1831 1902 1935 1916 1939 1959 1987 2111 2241 2295 2238 2292 2375 2407 1972 1283 1018 1021 976 814 582 721 679 649 267 250 187 0 0 0 0 0 0
4559 4419 4471 4388 4661 4904 4900 5220 5266 5408 5991 6200 5714 4890 4026 3889 3584 3520 3441 3332 3299 3309 3362 3417 3438 3497 3456 3379 3326 3207 3010 2792 2687 2504 1876 1052 292 21 0 0 0 0 0 0 0 0 0 0 0 9 71 297 681 1092 1333 1433 1467 1456 1454 1474 1558 1709 1836 1964 2007 1777 1678 1036 873 867 881 779 724 580 587 275 0 31 0 0 0 1 0 0 0
3884 3980 4002 4197 4412 4527 4674 4175 4246 4961 5268 5266 5142 4014 3840 3514 3328 3196 3239 3278 3147 3053 3022 2882 2680 2631 2628 2560 2493 2267 1461 591 60 0 0 0 0 0 9 324 167 47 38 0 0 0 0 0 0 0 0 0 3 32 140 402 777 923 1003 1097 1203 1274 1340 1441 1662 1503 890 614 502 620 744 482 528 362 467 364 0 0 7 0 0 0 0 0 0
2233 2547 2474 3124 3376 3590 3818 3996 4187 4279 4416 4655 4691 3872 2879 2084 1628 1522 1489 1786 2273 2446 1901 1320 1216 1064 824 633 411 150 0 0 0 0 0 0 0 0 255 122 85 91 62 78 31 10 2 0 0 0 0 1 2 3 10 29 75 179 363 579 683 808 928 1004 995 1016 1100 1019 468 334 419 421 428 366 482 549 382 0 0 1 0 0 0 0 0
1707 1841 2258 2360 2509 2681 2634 3214 3812 3747 3318 3521 3241 2213 1717 1533 1174 1056 1035 981 1041 966 1431 1382 903 646 700 311 131 94 0 0 0 0 0 0 0 6 133 100 98 83 48 23 43 26 37 13 6 6 11 19 23 41 58 74 74 54 24 39 87 75 112 115 402 635 468 292 148 326 329 206 238 264 382 439 251 47 0 0 0 0 0 0 0
1574 1697 1596 1856 2153 2283 2266 2202 2293 2328 2350 2466 2595 1953 1540 1588 1203 935 1058 1173 642 728 649 548 247 232 278 424 471 373 317 226 172 412 151 106 358 298 111 84 71 41 44 46 16 9 1 2 4 5 4 1 1 1 3 1 1 4 10 44 63 36 8 4 4 0 0 2 8 156 238 226 312 345 304 274 131 0 0 0 0 0 0 0 0
1335 1115 1104 1287 1618 1945 1905 1893 1747 1383 1632 1598 1396 1355 1027 933 815 952 1024 1032 1033 804 521 269 144 71 77 166 366 292 1093 302 180 145 148 112 102 107 88 53 34 29 30 29 2 1 1 4 6 7 6 3 1 0 0 0 0 0 0 2 2 2 0 1 0 0 0 0 34 206 319 372 298 142 52 2 14 2 2 0 1 0 0 0 1
1166 1248 1278 1121 1432 1636 1507 1310 1202 1370 1338 1417 1103 950 809 805 872 1093 1132 1148 813 553 293 162 57 40 31 62 27 114 702 98 78 52 50 33 44 28 51 24 13 3 3 2 3 4 6 4 5 3 2 0 2 2 0 0 0 0 0 0 0 0 0 0 0 0 2 7 107 450 445 219 111 50 6 6 16 30 42 15 0 1 0 0 0
1264 1299 1134 976 1070 1108 1225 1094 1191 1375 1233 1241 1397 1235 1137 1299 1228 1079 836 653 415 342 270 219 89 23 4 0 0 0 650 96 34 68 22 20 11 0 1 0 0 1 2 3 5 4 4 10 8 8 3 1 0 0 0 0 0 0 0 0 0 0 0 0 0 0 1 47 121 93 2 1 35 79 67 60 61 40 3 5 10 0 0 0 0
1163 1218 1076 783 967 853 755 857 891 1308 1405 1187 1092 938 860 828 789 584 499 372 428 366 267 268 303 135 0 0 0 0 878 158 10 19 13 1 0 0 0 0 0 1 2 1 2 0 0 0 0 2 5 5 2 0 0 0 0 0 0 0 0 0 0 0 0 0 0 0 0 0 0 1 4 11 18 17 31 44 33 14 6 0 0 0 0
1027 866 1072 1083 1175 1074 944 804 1248 1089 1102 874 739 772 825 500 462 565 431 307 226 176 306 274 226 310 82 0 0 0 163 204 40 26 0 0 0 0 0 0 0 0 0 0 0 0 0 0 0 1 2 2 6 4 0 0 0 0 0 0 0 0 0 0 0 0 0 0 0 0 0 0 3 24 36 42 47 40 34 22 7 0 0 0 0
719 721 793 823 892 888 925 898 720 767 738 941 883 887 867 786 634 587 342 329 159 107 46 109 227 386 530 189 164 460 162 230 76 13 4 0 0 0 0 0 0 0 0 0 0 0 0 0 0 1 3 2 3 1 0 0 1 0 0 0 0 0 0 0 0 0 0 0 0 0 0 5 21 29 28 39 44 32 26 18 8 0 0 0 0
28 120 366 410 482 510 525 962 766 807 772 591 727 706 718 452 346 267 270 103 35 72 28 12 36 22 50 212 477 216 107 76 45 31 129 0 0 0 0 2 4 14 2 2 0 0 0 0 2 1 0 1 0 0 1 2 5 13 8 0 0 0 0 0 0 0 0 0 0 0 7 22 31 40 35 38 41 34 19 4 0 0 0 0 0
0 0 0 0 207 339 378 394 374 385 399 421 498 314 298 292 240 215 153 134 102 64 43 18 5 7 4 4 1 0 6 9 6 0 7 1 0 0 0 4 32 22 12 13 9 6 4 0 0 5 2 0 0 0 0 4 7 7 6 12 8 4 1 0 0 0 0 9 18 26 29 29 27 31 39 37 35 30 13 0 0 0 0 0 0
0 0 0 0 0 0 314 319 341 352 343 303 274 197 150 101 88 56 28 69 52 26 32 33 14 1 3 5 4 0 0 0 3 20 74 48 22 10 18 101 76 33 27 24 22 15 20 14 11 2 4 0 0 0 0 0 0 0 2 3 2 1 1 14 14 12 0 12 20 29 34 39 34 26 27 25 4 0 0 0 0 0 0 0 0
0 0 0 0 0 0 0 0 0 82 263 329 280 157 58 0 0 0 0 0 0 1 15 13 1 0 0 0 0 1 1 0 5 49 113 118 110 158 160 239 155 67 80 79 54 48 33 28 15 10 0 1 0 0 0 0 0 0 0 0 0 0 0 7 16 18 21 20 16 14 16 22 24 0 0 0 0 0 0 0 0 0 0 0 0
0 0 0 0 0 0 0 0 0 0 0 0 0 0 0 0 0 0 0 0 0 0 0 0 0 0 0 0 0 0 0 0 0 3 15 42 156 129 217 209 238 126 132 104 62 26 85 33 24 19 14 13 3 0 0 0 0 0 0 0 0 0 0 0 0 0 0 0 0 0 0 0 0 0 0 0 0 0 0 0 0 0 0 0 0
0 0 0 0 0 0 0 0 0 0 0 0 0 0 0 0 0 0 0 0 0 0 0 0 0 0 0 0 0 0 0 0 0 0 7 9 11 27 21 23 171 176 122 190 154 64 70 72 54 25 26 20 3 2 0 0 1 0 0 0 0 0 0 0 0 0 0 0 0 0 0 0 0 0 0 0 0 0 0 0 0 0 0 0 0
0 0 0 0 0 0 0 0 0 0 0 0 0 0 0 0 0 0 0 0 0 0 0 0 0 0 1 0 0 0 0 0 0 4 22 18 23 9 20 42 26 29 50 93 99 82 57 42 47 54 28 4 0 0 0 1 0 0 0 0 0 0 0 0 0 0 0 0 0 0 0 0 0 0 0 0 0 0 0 0 0 0 0 0 0
Wind_Speed
15 14 14 13 15 15 15 15 15 14 14 13 13 12 13 13 14 13 14 14 15 15 14 14 16 16 16 16 16 17 18 17 17 17 17 17 16 17 17 19 17 16 17 17 16 15 16 15 15 18 19 19 18 16 17 19 20 20 19 19 20 20 22 21 21 19 16 19 19 22 24 26 24 23 22 24 25 27 26 25 26 27 29 31 34
12 13 12 12 14 15 15 15 15 15 15 15 14 14 14 14 15 16 15 15 17 17 18 18 18 20 19 19 19 19 20 20 20 19 19 18 18 17 18 21 20 18 17 18 18 16 17 17 16 17 20 20 19 19 17 18 20 20 20 20 20 22 22 23 21 21 21 19 20 20 21 25 24 24 25 25 26 27 27 27 27 31 33 35 37
11 11 11 12 14 15 16 17 18 18 19 17 18 17 17 16 17 17 17 17 18 18 19 20 20 21 22 22 22 21 22 22 21 21 21 20 20 19 19 21 23 22 20 19 19 18 17 18 18 17 18 20 19 19 19 18 19 21 21 20 20 21 23 23 23 22 22 21 23 23 22 21 22 26 25 26 26 30 31 31 31 31 34 38 38
11 12 12 13 16 17 17 18 21 21 21 19 20 20 18 18 19 19 19 18 19 20 21 22 22 22 22 23 24 23 23 23 22 21 22 22 22 21 21 21 22 23 22 21 20 19 18 18 19 19 18 19 20 19 18 18 19 21 22 21 21 21 21 24 24 23 23 22 22 24 25 26 24 26 28 28 29 28 31 32 34 34 35 39 40
12 13 15 16 17 17 18 19 20 21 21 20 21 22 21 20 20 20 19 19 19 21 22 23 24 24 23 23 24 25 24 23 23 22 21 22 23 23 22 21 21 23 23 22 21 19 19 18 19 20 19 19 20 20 19 18 19 20 22 22 22 22 21 23 25 25 24 24 23 23 25 27 28 29 30 31 30 30 29 32 35 37 37 37 38
13 16 18 18 17 19 20 20 21 21 21 20 21 22 21 20 20 20 19 18 18 19 22 23 24 24 24 24 24 24 25 24 24 23 22 21 22 23 23 22 21 21 23 22 21 19 18 19 20 20 20 20 20 21 21 20 19 19 21 22 23 23 23 22 23 25 25 24 25 25 26 27 28 29 32 33 34 33 31 31 33 36 38 39 40
17 18 20 21 19 20 20 20 20 20 20 19 20 20 20 20 18 18 18 17 17 18 20 22 22 22 23 23 23 23 24 24 23 23 21 20 21 23 24 23 22 21 21 22 21 19 19 19 20 21 21 20 21 23 24 23 21 20 21 23 24 24 24 24 24 25 26 26 26 26 26 27 30 30 32 35 35 35 35 34 33 35 37 40 40
19 19 20 20 20 20 19 19 18 18 19 20 20 20 20 19 17 16 17 17 18 17 18 20 21 21 21 21 21 22 22 23 23 21 21 20 21 22 24 25 24 22 22 22 20 19 19 19 20 22 22 22 22 23 26 25 25 23 23 24 25 26 25 26 26 26 26 27 28 28 29 28 30 32 33 36 36 36 37 37 37 37 37 39 42
18 19 20 19 19 20 20 19 18 18 19 20 21 20 19 18 17 16 17 17 16 16 16 18 20 21 21 19 19 20 19 20 21 21 21 22 22 22 24 25 25 23 22 22 21 20 18 18 19 21 24 25 26 26 28 29 28 27 26 27 27 28 28 27 28 28 28 28 29 30 30 31 31 34 36 37 39 40 41 41 38 38 38 39 40
17 18 19 19 20 20 20 20 19 19 19 20 20 19 18 18 18 17 16 17 17 16 16 16 18 20 20 19 18 18 18 18 21 26 25 23 23 21 22 22 23 23 23 22 21 21 20 18 18 22 25 28 29 30 30 32 32 30 30 31 31 30 30 30 31 31 31 31 31 32 32 33 35 35 36 37 39 40 43 45 43 41 40 40 40
20 20 19 20 21 21 21 20 20 19 19 20 20 19 18 18 17 17 16 17 19 19 18 17 15 17 19 18 18 17 16 16 22 24 25 26 23 20 19 20 21 22 22 22 21 21 21 20 18 22 23 27 29 33 32 33 33 33 35 35 34 34 34 34 32 34 34 33 34 33 33 35 37 38 38 38 40 42 44 45 47 47 46 45 43
24 24 23 23 22 22 21 20 20 20 20 20 21 20 19 18 17 17 17 17 19 20 20 18 15 14 17 17 16 14 14 16 21 23 24 25 24 21 19 19 20 21 21 22 21 21 21 21 21 21 23 25 28 29 32 34 34 35 36 36 36 36 36 36 36 36 37 37 37 37 37 37 40 41 41 42 42 43 45 47 48 50 50 50 48
27 28 28 25 23 22 22 21 20 20 20 21 21 21 20 19 17 17 17 18 20 20 20 19 17 14 14 16 15 14 12 16 20 23 24 25 26 24 20 20 19 20 21 22 22 22 22 22 22 23 23 29 28 28 30 30 33 36 37 36 36 37 36 36 37 37 39 38 38 40 41 42 43 44 45 46 46 46 47 48 50 50 51 51 51
28 30 29 27 26 25 24 22 20 19 20 21 21 21 21 19 17 16 17 19 20 20 20 19 17 15 13 13 15 14 12 14 20 22 24 26 27 26 20 21 20 20 21 22 23 24 25 24 24 24 25 28 28 29 29 30 32 33 35 35 34 34 35 36 36 38 39 38 40 40 42 45 44 46 48 50 49 50 51 51 52 52 53 53 53
26 31 30 29 29 27 24 21 20 19 20 21 20 20 20 19 17 16 17 18 19 20 20 19 18 17 15 13 13 13 11 16 19 21 23 25 26 26 22 22 20 19 20 22 23 24 24 26 27 27 28 30 31 32 32 32 32 33 35 36 36 36 35 34 35 36 36 37 39 40 43 45 45 46 49 52 52 52 54 55 57 55 54 54 53
25 30 29 30 30 26 21 19 20 20 19 19 18 17 18 19 18 17 16 16 17 17 17 16 16 16 15 14 13 12 11 17 20 21 23 25 29 24 23 23 22 22 21 21 22 22 23 25 26 28 29 31 34 39 37 35 35 34 34 34 35 36 35 35 36 37 37 37 38 41 43 44 46 47 50 53 55 56 58 59 60 58 57 54 51
25 27 28 30 30 24 18 18 19 19 19 18 16 17 18 18 18 18 16 16 17 17 16 16 15 15 16 16 16 13 11 16 22 22 23 26 26 25 26 26 25 25 25 26 25 24 25 27 29 29 30 31 36 41 41 43 39 38 37 37 37 38 36 36 38 40 39 37 38 40 43 45 50 54 54 52 58 60 60 61 61 63 61 57 55
25 28 30 30 28 23 18 17 18 19 17 15 15 15 18 18 17 18 16 15 15 14 16 16 16 17 17 17 18 16 15 19 25 24 26 28 30 28 29 30 29 28 28 28 28 28 29 33 33 32 32 33 38 44 45 45 42 42 40 40 41 42 41 41 42 43 43 42 42 42 44 50 52 53 57 59 62 64 63 61 62 64 62 62 60
27 28 31 31 27 22 19 17 17 17 15 13 13 15 17 18 18 19 17 16 14 14 15 15 16 17 18 18 19 19 17 20 28 29 31 33 33 30 32 33 32 31 32 31 31 31 31 32 34 33 33 35 41 44 46 46 41 42 42 42 42 42 43 46 46 48 48 47 46 48 48 51 54 55 56 62 65 64 63 63 63 64 62 63 62
29 31 33 32 27 22 20 19 16 14 13 13 12 13 16 17 18 18 17 16 16 15 15 15 15 16 17 18 19 21 20 20 28 31 34 35 37 34 33 34 32 33 34 35 35 34 33 33 34 33 34 36 41 44 45 47 42 41 43 43 42 41 43 47 47 49 49 49 49 51 51 54 55 56 59 59 61 63 65 65 64 64 65 64 63
30 32 34 33 27 22 21 20 18 16 14 13 12 13 14 15 17 17 17 17 17 17 15 15 16 16 17 18 18 19 21 21 26 32 33 35 36 35 32 31 30 31 33 34 35 35 35 35 34 37 34 33 38 43 45 45 45 43 44 43 43 43 49 48 48 52 52 52 51 53 54 55 55 56 58 58 59 62 65 65 65 67 67 67 65
28 31 33 34 30 25 22 22 22 20 18 17 15 14 15 16 16 17 16 17 17 17 17 16 16 16 17 18 18 19 21 23 25 31 34 35 35 35 30 28 30 31 32 32 34 34 35 36 35 36 38 36 36 41 44 44 45 44 44 45 45 51 54 53 53 55 57 58 58 58 57 58 59 59 58 57 57 60 65 66 67 68 67 68 69
26 29 32 34 32 29 25 24 25 24 22 21 19 17 17 17 17 18 19 18 18 19 19 20 20 19 19 21 23 24 24 27 29 34 35 37 35 33 31 29 32 34 33 33 33 33 35 35 36 37 42 41 42 44 45 47 47 46 46 47 49 56 59 58 60 61 62 64 65 63 60 60 61 61 61 60 59 61 63 65 67 68 69 71 70
26 27 29 31 32 30 28 27 26 26 25 24 23 21 20 19 19 20 21 21 21 22 23 24 24 23 23 24 25 27 29 30 34 39 38 38 36 35 33 31 32 35 35 33 34 34 35 37 38 39 43 46 47 49 50 51 51 52 50 50 53 57 59 60 63 63 64 65 63 62 59 58 58 58 58 62 64 65 66 67 68 69 70 73 nan
27 27 28 29 30 31 31 29 28 29 29 29 27 25 23 22 21 22 23 24 24 24 26 28 28 28 28 29 29 30 31 32 33 41 44 41 39 37 36 36 35 36 37 37 36 37 39 40 41 40 43 47 49 50 50 51 52 52 52 52 55 58 58 60 64 65 65 65 64 63 60 56 55 56 58 61 65 67 67 67 68 69 71 nan nan
28 28 29 29 30 30 30 30 31 31 31 32 31 28 26 25 24 25 25 27 28 28 29 31 31 32 33 31 32 34 35 37 36 44 43 42 39 39 40 40 39 40 39 39 40 40 41 43 42 43 49 50 50 50 47 48 49 50 52 56 59 59 60 61 65 66 65 67 67 66 64 61 58 58 60 62 65 66 67 68 69 69 nan nan nan
30 31 31 31 31 30 29 30 34 33 32 31 31 31 29 28 28 28 29 29 31 32 31 32 33 35 35 35 36 38 40 40 41 48 49 46 43 42 40 35 34 34 37 37 36 39 41 43 44 45 48 51 53 53 53 53 52 52 51 54 59 61 62 64 66 67 67 68 68 69 69 67 67 67 66 67 67 67 68 70 70 71 nan nan nan
29 29 30 31 31 30 30 32 33 32 33 32 30 32 31 30 31 33 33 32 33 34 34 35 36 37 37 39 40 42 42 49 52 50 49 48 49 49 49 48 46 48 44 42 43 41 43 45 46 50 51 50 51 50 51 52 53 55 56 59 60 62 64 66 68 69 70 70 71 73 73 72 72 71 70 71 72 71 72 72 71 nan nan nan nan
30 29 29 30 30 31 30 32 32 33 39 46 47 45 39 36 39 45 43 39 37 35 38 39 40 39 42 45 47 50 53 55 51 50 49 50 50 49 51 51 52 51 48 46 45 47 48 48 47 49 51 50 48 51 54 55 57 57 59 60 62 64 67 69 69 71 72 74 74 76 75 74 72 71 70 73 74 73 73 73 72 nan nan nan nan
32 30 30 29 30 32 31 31 33 33 40 45 47 48 51 55 50 47 44 46 55 58 55 50 49 51 55 52 52 56 56 55 55 54 54 55 56 56 53 51 51 51 51 48 51 52 52 52 52 52 52 51 50 50 53 58 61 63 62 62 63 65 66 67 68 71 74 75 77 77 77 75 73 71 71 74 75 72 71 74 75 nan nan nan nan
41 40 39 38 37 35 32 33 35 33 39 44 45 46 47 52 56 55 52 53 58 61 61 61 62 60 60 58 60 69 67 62 60 60 61 61 61 60 57 54 51 55 57 54 56 56 53 54 54 56 55 55 53 51 53 55 56 60 63 64 64 64 64 65 67 72 76 78 78 79 79 77 73 72 74 76 77 73 70 72 76 nan nan nan nan
42 41 41 41 39 40 41 39 40 43 45 45 45 46 48 49 51 53 55 58 61 62 65 66 67 69 68 66 63 61 64 64 64 64 64 65 64 63 61 59 59 59 59 63 60 56 55 53 53 54 55 55 52 50 51 53 54 58 60 63 63 64 65 65 68 73 77 80 80 81 80 78 74 70 71 76 76 72 70 72 75 nan nan nan nan
44 44 44 43 42 44 44 45 45 44 45 46 46 47 48 50 52 52 53 55 60 63 63 65 67 68 70 69 69 68 64 62 64 64 64 63 63 63 63 65 66 66 67 nan nan nan nan 56 54 53 54 53 51 51 51 52 53 56 57 57 59 61 62 62 67 70 74 80 83 85 84 81 76 71 68 70 72 72 70 nan nan nan nan nan nan
47 45 45 45 45 45 45 45 45 45 45 46 48 49 51 51 52 53 55 55 58 60 61 63 65 67 67 68 67 65 64 64 64 64 63 63 61 nan nan nan nan nan nan nan nan nan nan nan nan nan nan 51 50 51 51 51 52 52 51 52 54 55 57 63 68 70 74 80 82 83 82 80 74 69 64 64 nan nan nan nan nan nan nan nan nan
46 48 49 47 46 46 46 46 46 46 47 48 49 52 54 53 53 55 55 57 59 60 61 60 59 63 65 62 61 62 61 59 nan nan nan nan nan nan nan 64 65 nan nan nan nan nan nan nan nan nan nan nan nan nan 49 47 47 47 48 51 52 54 58 65 70 74 81 84 82 78 78 78 71 66 65 62 nan nan nan nan nan nan nan nan nan
46 46 46 48 48 47 47 47 47 48 48 47 47 53 53 52 54 56 57 58 60 60 61 60 59 59 65 64 61 59 nan nan nan nan nan nan nan nan 64 63 nan nan nan nan nan nan nan nan nan nan nan nan nan nan nan nan nan 45 48 50 51 54 58 63 68 73 80 84 79 71 69 70 70 66 61 56 54 nan nan nan nan nan nan nan nan
47 49 50 49 49 49 49 49 50 52 53 54 55 56 54 58 58 57 58 58 58 59 59 58 57 56 55 57 57 nan nan nan nan nan nan nan nan nan 63 nan nan nan nan nan nan nan nan nan nan nan nan nan nan nan nan nan nan nan nan nan nan nan 59 64 69 75 78 82 82 75 61 57 63 62 56 48 50 nan nan nan nan nan nan nan nan
54 52 51 51 50 51 52 52 54 54 54 56 57 57 57 58 60 59 60 60 60 60 60 60 60 59 59 57 57 59 57 58 61 63 64 64 63 64 65 nan nan nan nan nan nan nan nan nan nan nan nan nan nan nan nan nan nan nan nan nan nan nan nan nan nan nan nan nan nan 68 60 56 55 50 45 48 55 nan nan nan nan nan nan nan nan
54 53 53 52 53 53 53 52 51 54 56 57 58 58 59 59 60 60 60 59 61 62 62 62 61 nan nan 58 60 59 60 66 65 66 66 67 66 65 nan nan nan nan nan nan nan nan nan nan nan nan nan nan nan nan nan nan nan nan nan nan nan nan nan nan nan nan nan nan nan 43 45 50 45 41 nan nan nan nan nan nan nan nan nan nan nan
54 53 53 50 51 52 53 55 57 60 59 59 58 58 57 58 57 57 58 60 61 61 62 62 nan nan nan nan nan 63 65 nan nan nan nan nan nan nan nan nan nan nan nan nan nan nan nan nan nan nan nan nan nan nan nan nan nan nan nan nan nan nan nan nan nan nan nan nan 41 35 34 38 45 nan nan nan nan nan nan nan nan nan nan nan nan
56 55 56 55 56 58 60 59 59 59 59 59 60 60 58 58 58 58 58 60 60 61 62 63 nan nan nan nan nan nan 66 nan nan nan nan nan nan nan nan nan nan nan nan nan nan nan nan nan nan nan nan nan nan nan nan nan nan nan nan nan nan nan nan nan nan nan nan nan 50 nan nan nan nan nan nan nan nan nan nan nan nan nan nan nan nan
58 57 57 58 59 59 59 59 59 58 58 59 57 57 58 58 58 59 60 61 62 63 64 66 67 69 nan nan nan nan 67 68 nan nan nan nan nan nan nan nan nan nan nan nan nan nan nan nan nan nan nan nan nan nan nan nan nan nan nan nan nan nan nan nan nan nan nan nan nan nan nan nan nan nan nan nan nan nan nan nan nan nan nan nan nan
59 58 58 57 57 57 57 57 55 56 57 58 58 59 60 59 60 61 62 62 63 65 67 68 68 69 nan nan nan nan 57 62 nan nan nan nan nan nan nan nan nan nan nan nan nan nan nan nan nan nan nan nan nan nan nan nan nan nan nan nan nan nan nan nan nan nan nan nan nan nan nan nan nan nan nan nan nan nan nan nan nan nan nan nan nan
57 58 57 57 57 56 56 57 59 58 59 60 60 59 60 60 62 62 63 63 65 65 nan 67 64 60 57 53 52 54 57 59 nan nan nan nan nan nan nan nan nan nan nan nan nan nan nan nan nan nan nan nan nan nan nan nan nan nan nan nan nan nan nan nan nan nan nan nan nan nan nan nan nan nan nan nan nan nan nan nan nan nan nan nan nan
nan 59 59 60 60 59 59 58 59 59 58 57 59 61 62 62 62 63 64 64 nan nan nan nan nan nan nan 53 57 57 57 nan nan nan 55 nan nan nan nan nan nan nan nan nan nan nan nan nan nan nan nan nan nan nan nan nan nan nan nan nan nan nan nan nan nan nan nan nan nan nan nan nan nan nan nan nan nan nan nan nan nan nan nan nan nan
nan nan nan nan 62 63 62 61 59 60 60 60 61 61 62 62 64 65 64 62 59 nan nan nan nan nan nan nan nan nan nan nan nan nan nan nan nan nan nan nan nan nan nan nan nan nan nan nan nan nan nan nan nan nan nan nan nan nan nan nan nan nan nan nan nan nan nan nan nan nan nan nan nan nan nan nan nan nan nan nan nan nan nan nan nan
nan nan nan nan nan nan 61 60 60 60 60 60 61 61 61 60 nan nan nan nan nan nan nan nan nan nan nan nan nan nan nan nan nan nan nan nan nan nan nan 48 nan nan nan nan nan nan nan nan nan nan nan nan nan nan nan nan nan nan nan nan nan nan nan nan nan nan nan nan nan nan nan nan nan nan nan nan nan nan nan nan nan nan nan nan nan
nan nan nan nan nan nan nan nan nan nan 59 60 61 61 nan nan nan nan nan nan nan nan nan nan nan nan nan nan nan nan nan nan nan nan 54 52 51 51 50 49 48 nan nan nan nan nan nan nan nan nan nan nan nan nan nan nan nan nan nan nan nan nan nan nan nan nan nan nan nan nan nan nan nan nan nan nan nan nan nan nan nan nan nan nan nan
nan nan nan nan nan nan nan nan nan nan nan nan nan nan nan nan nan nan nan nan nan nan nan nan nan nan nan nan nan nan nan nan nan nan nan nan 49 47 47 46 46 47 45 44 nan nan nan nan nan nan nan nan nan nan nan nan nan nan nan nan nan nan nan nan nan nan nan nan nan nan nan nan nan nan nan nan nan nan nan nan nan nan nan nan nan
nan nan nan nan nan nan nan nan nan nan nan nan nan nan nan nan nan nan nan nan nan nan nan nan nan nan nan nan nan nan nan nan nan nan nan nan nan nan nan nan 43 43 43 42 39 nan nan nan nan nan nan nan nan nan nan nan nan nan nan nan nan nan nan nan nan nan nan nan nan nan nan nan nan nan nan nan nan nan nan nan nan nan nan nan nan
nan nan nan nan nan nan nan nan nan nan nan nan nan nan nan nan nan nan nan nan nan nan nan nan nan nan nan nan nan nan nan nan nan nan nan nan nan nan nan nan nan nan nan nan nan nan nan nan nan nan nan nan nan nan nan nan nan nan nan nan nan nan nan nan nan nan nan nan nan nan nan nan nan nan nan nan nan nan nan nan nan nan nan nan nan
Wind_Direction
311 304 304 305 306 313 318 316 320 317 318 318 315 311 306 307 306 308 296 302 302 308 304 300 298 299 301 299 304 301 303 308 308 312 318 323 329 334 333 332 327 313 308 311 317 315 320 324 323 326 327 332 337 338 339 336 338 344 346 344 345 342 343 343 343 344 336 332 332 328 336 333 339 336 337 339 335 342 344 344 343 339 342 341 341
308 301 301 301 312 313 319 315 317 313 321 318 316 312 309 305 301 299 305 303 302 305 306 301 295 298 299 297 297 296 298 301 304 304 309 315 323 325 331 332 332 327 315 312 313 315 315 320 324 323 326 331 332 338 337 337 336 341 343 345 342 342 341 341 344 341 345 337 336 333 330 336 338 340 335 337 334 338 343 343 344 342 343 344 343
306 294 300 305 312 312 315 316 314 318 326 320 327 323 315 310 304 305 309 307 302 303 300 303 297 296 297 295 296 295 296 299 298 299 303 309 317 322 327 329 333 333 329 320 315 313 315 316 323 322 319 328 331 332 335 336 335 337 340 338 339 338 336 338 335 341 341 339 335 335 337 333 330 334 338 333 334 336 342 343 344 344 345 347 348
305 300 303 311 315 312 314 310 322 324 325 318 324 322 316 311 305 307 309 307 305 301 299 300 298 297 298 297 298 297 296 297 298 298 301 306 310 318 322 325 328 332 331 326 318 312 315 312 316 320 319 322 325 326 327 329 329 328 332 330 332 333 330 332 335 332 333 338 334 337 335 335 332 328 335 333 335 336 338 340 341 344 345 347 349
305 305 308 312 313 309 315 314 317 321 322 316 321 319 317 313 306 311 311 312 310 303 302 300 300 300 300 299 298 300 300 299 300 301 299 301 308 314 319 321 323 325 327 324 319 313 311 311 309 311 315 318 318 322 322 325 324 321 324 324 324 325 324 326 331 332 331 333 332 330 330 332 333 332 331 331 333 335 336 338 340 343 346 345 347
305 303 306 311 307 314 313 313 317 319 318 317 317 317 317 315 313 311 315 317 314 311 309 306 304 305 302 300 298 298 299 299 301 303 305 303 305 310 313 316 318 317 318 319 316 310 306 306 304 307 313 318 316 317 317 321 318 317 317 317 317 316 321 321 322 329 332 332 328 327 329 330 328 328 331 331 330 333 335 336 336 339 342 345 346
302 312 314 318 309 316 312 309 308 310 307 308 307 308 316 320 322 319 317 321 324 322 316 313 308 307 305 302 302 298 298 300 300 303 305 305 305 308 309 311 312 310 311 314 313 308 305 302 302 306 312 314 314 314 314 316 316 315 313 311 311 312 316 318 319 321 325 329 327 326 325 326 327 327 325 328 330 329 331 333 337 337 339 340 342
305 307 310 312 311 315 308 302 301 299 296 298 301 308 315 318 318 312 310 320 328 328 327 321 312 310 308 304 301 298 297 297 300 303 306 305 302 303 305 305 308 308 308 309 310 307 305 305 307 308 312 311 312 310 310 313 312 314 310 306 307 311 313 314 317 318 319 322 324 324 325 325 323 324 321 324 327 330 329 328 333 335 338 339 340
301 308 309 315 316 310 302 298 295 292 294 297 305 308 310 311 310 307 306 314 318 327 332 326 317 314 312 308 304 301 302 300 298 301 302 304 299 301 303 304 306 308 309 311 310 307 304 305 307 310 312 317 322 316 315 314 312 314 311 308 309 311 311 310 312 314 316 317 317 316 319 323 323 321 325 325 329 329 325 326 328 329 331 335 338
297 309 316 318 312 308 307 302 297 294 292 297 303 306 304 303 306 309 309 312 313 319 324 327 320 317 316 315 311 307 307 301 306 316 310 301 302 300 301 305 309 311 313 314 315 315 314 311 311 321 319 321 322 325 323 322 323 317 313 312 313 311 311 311 311 311 311 314 314 313 318 319 319 321 321 322 320 322 324 324 328 328 327 330 332
306 311 312 310 310 311 313 311 302 298 295 294 295 299 301 298 301 307 310 311 317 320 322 328 328 317 322 324 325 319 317 314 322 319 321 322 312 312 311 310 313 316 319 320 320 318 317 316 312 316 319 319 322 326 325 325 324 324 322 322 318 315 313 313 312 311 311 311 309 311 314 315 315 315 319 317 318 320 322 323 325 325 327 328 331
310 309 308 307 309 312 312 311 308 304 297 297 298 300 299 299 303 308 312 317 315 315 323 328 328 324 321 331 334 330 328 331 328 329 329 330 325 318 316 314 315 320 322 325 323 322 323 323 322 315 316 320 316 318 324 326 325 324 323 321 323 325 320 314 311 310 310 309 310 313 312 312 311 313 314 315 316 317 319 320 322 323 324 325 325
301 304 307 308 310 309 306 309 310 307 305 300 297 297 301 307 311 311 316 314 311 317 324 328 331 333 326 328 337 337 335 333 331 333 334 334 333 326 317 320 322 324 326 329 327 327 328 328 327 325 319 328 323 319 318 321 324 325 323 322 324 325 323 322 318 312 306 308 310 311 312 308 310 311 312 312 311 315 315 317 318 320 320 321 321
293 301 303 304 307 308 306 305 306 305 299 295 295 302 306 310 312 306 302 303 313 324 326 329 329 330 331 325 327 334 340 325 332 335 336 336 334 328 321 324 328 331 330 330 329 332 334 332 330 328 322 318 324 325 323 322 317 313 312 313 313 319 321 323 322 319 311 306 306 308 306 305 306 306 308 309 310 311 312 314 313 314 315 316 313
284 291 299 300 304 311 310 304 300 296 295 296 299 305 306 301 300 294 296 308 315 321 324 324 326 326 331 328 313 324 338 331 328 336 335 335 334 328 325 324 325 328 327 326 330 333 333 330 330 329 323 321 323 330 327 325 320 316 317 317 317 313 312 312 312 307 306 303 303 303 300 301 303 302 302 305 308 306 307 306 306 306 306 305 305
283 284 293 297 303 310 312 307 301 296 295 296 301 306 300 294 294 289 289 298 305 306 308 315 320 321 319 320 319 324 327 326 325 331 334 332 331 310 319 322 322 322 323 323 324 325 326 326 323 323 321 322 325 332 328 320 320 321 321 320 317 313 311 316 320 316 310 306 301 299 297 298 299 299 299 299 298 299 298 297 297 300 304 308 312
284 283 287 292 298 303 308 312 309 301 297 300 306 308 300 290 285 282 290 297 299 304 307 307 298 302 309 311 320 319 314 314 319 327 328 329 312 296 312 315 317 320 319 320 323 323 323 322 319 318 320 320 320 322 324 319 316 319 320 319 316 312 313 312 317 316 314 310 306 303 301 299 296 294 292 297 298 298 297 298 301 302 304 309 311
279 278 281 288 293 294 293 303 309 307 303 308 307 303 295 283 286 286 294 299 306 306 297 293 299 303 310 315 316 313 310 309 315 320 323 319 312 297 311 310 314 315 315 314 314 315 320 327 322 319 319 316 316 316 320 316 312 313 314 315 312 312 314 311 304 303 311 310 307 304 301 297 297 296 297 296 299 299 299 302 302 302 305 307 309
273 276 277 284 288 283 280 291 303 309 311 304 296 298 296 291 285 283 292 298 298 290 292 300 308 312 324 327 325 323 318 309 311 316 319 317 314 303 307 307 312 316 313 312 311 307 308 312 323 321 316 312 313 313 317 315 312 310 311 309 312 318 319 313 308 304 305 303 303 299 293 295 293 292 294 299 301 301 299 300 300 301 303 303 305
263 265 270 279 284 279 271 278 290 300 305 300 292 292 286 287 294 295 296 298 299 302 303 309 319 319 319 318 318 310 313 307 301 312 311 313 316 306 302 305 313 316 310 308 306 306 306 305 309 320 320 315 311 312 314 320 316 311 308 309 315 322 313 309 311 308 308 312 311 308 303 296 293 291 291 294 298 297 297 298 299 298 299 299 300
254 257 263 273 280 277 266 272 279 278 283 287 286 286 289 291 293 294 302 303 302 306 316 315 317 313 312 307 309 308 305 305 298 309 309 310 313 310 299 305 307 303 301 301 303 304 304 304 299 307 320 318 312 312 315 320 321 313 312 314 318 313 306 306 310 312 305 307 307 304 301 297 296 294 293 294 295 295 295 296 296 296 296 297 299
252 252 257 265 271 270 266 265 271 271 272 273 278 281 282 288 291 298 301 299 304 306 308 305 306 304 299 295 293 292 295 307 295 302 309 310 311 319 305 306 303 298 297 298 300 301 300 295 296 302 312 318 313 311 315 317 322 314 317 321 318 309 306 305 304 303 301 302 303 303 302 300 300 299 297 296 296 294 295 295 296 296 297 296 297
257 254 254 258 263 263 258 262 266 268 269 272 274 276 276 283 287 289 293 294 296 300 300 300 299 298 292 290 288 288 290 295 306 297 307 311 316 320 325 313 307 301 300 300 301 299 294 294 294 301 308 314 316 315 316 321 316 319 325 318 314 309 305 301 301 302 303 304 305 306 305 303 304 304 301 299 297 295 293 294 295 296 295 295 294
256 256 255 255 257 259 260 259 262 265 270 271 272 271 272 273 276 279 283 286 287 289 291 292 295 299 299 294 292 291 293 297 300 305 305 316 317 322 325 324 312 302 303 300 297 296 295 293 294 302 306 310 316 318 318 320 319 327 325 319 310 304 300 300 300 302 302 303 306 307 307 306 307 306 304 299 298 297 296 298 298 297 295 292 nan
255 255 254 253 252 253 256 257 260 263 265 268 269 269 268 269 271 273 276 281 282 282 284 287 290 292 293 295 295 295 295 295 294 301 309 312 317 319 322 324 323 314 303 300 298 296 296 299 300 303 303 306 314 319 316 320 324 321 321 318 309 299 302 302 302 303 304 307 307 305 304 305 307 307 303 300 299 298 299 300 301 300 296 nan nan
252 253 252 250 250 253 253 259 260 262 263 263 266 266 264 265 267 268 272 273 275 278 280 283 286 289 292 293 296 294 296 294 292 291 295 303 308 316 318 319 321 319 312 307 308 308 304 300 300 296 293 299 302 304 306 311 316 319 320 317 305 306 305 304 302 304 306 305 304 305 305 303 302 301 300 299 300 301 302 302 303 301 nan nan nan
249 250 250 250 250 251 254 256 258 262 261 261 262 263 264 263 263 265 269 272 275 278 281 283 285 287 290 292 291 292 290 291 286 282 283 287 287 284 282 281 282 278 279 281 282 286 290 292 294 296 294 303 309 312 315 316 314 313 311 308 309 310 308 305 304 304 303 303 303 302 301 300 297 298 299 299 299 298 300 300 300 299 nan nan nan
255 254 257 253 253 253 254 260 263 261 261 260 259 264 267 266 266 267 270 273 276 279 283 284 284 283 283 286 288 290 291 282 276 278 276 279 281 283 284 284 286 289 290 290 291 291 291 289 289 286 291 295 299 296 300 307 310 310 309 309 310 311 312 312 308 303 302 302 299 296 295 295 297 297 296 295 296 296 296 296 296 nan nan nan nan
250 255 256 257 259 258 259 260 262 262 259 254 251 247 246 251 257 257 251 255 262 273 281 283 282 280 276 271 272 273 273 276 277 274 276 273 273 276 281 285 288 290 294 296 292 289 290 294 296 297 297 301 302 304 304 306 304 306 308 309 308 308 307 306 305 303 301 299 297 296 295 294 294 294 292 290 289 290 290 290 290 nan nan nan nan
251 253 255 257 265 264 261 265 264 263 265 260 258 254 250 249 250 260 261 258 259 258 264 268 268 271 272 269 269 274 276 277 279 278 275 273 271 274 276 276 277 279 275 277 290 294 296 299 301 302 303 304 307 309 309 304 301 300 302 305 303 302 303 304 304 302 299 298 297 295 294 293 292 292 290 287 284 285 287 288 287 nan nan nan nan
245 246 246 245 241 254 257 263 265 261 265 266 263 263 260 253 250 253 260 263 264 265 267 268 265 265 274 276 273 275 279 281 281 279 278 278 279 279 278 277 277 278 279 281 286 293 297 299 302 303 304 304 307 309 308 305 304 301 297 299 302 303 303 302 303 300 299 299 298 297 294 293 292 292 291 287 287 286 285 283 284 nan nan nan nan
244 245 246 243 242 245 244 245 261 255 255 263 264 264 263 262 257 251 255 261 263 265 267 267 267 266 266 271 274 274 274 275 276 277 278 280 281 282 282 285 284 281 281 286 288 291 293 296 298 300 299 300 304 303 301 299 301 301 301 302 304 304 305 307 305 303 302 301 299 295 294 293 291 292 288 283 281 281 282 282 284 nan nan nan nan
246 245 244 244 246 245 245 245 247 253 260 264 264 263 262 262 263 263 258 260 264 266 266 267 269 270 270 270 271 274 274 272 271 271 272 273 274 275 279 283 285 284 285 nan nan nan nan 296 297 297 297 299 299 297 296 297 298 300 302 304 303 303 304 305 302 301 301 300 298 295 293 290 289 289 286 283 282 280 280 nan nan nan nan nan nan
242 244 246 247 247 248 249 249 251 252 252 260 263 264 264 263 264 265 265 265 263 261 261 262 265 267 267 269 271 271 271 271 271 271 271 271 271 nan nan nan nan nan nan nan nan nan nan nan nan nan nan 292 291 289 291 293 295 298 299 298 297 298 301 303 304 306 303 300 298 294 291 287 286 286 285 281 nan nan nan nan nan nan nan nan nan
246 245 248 248 247 249 251 252 253 254 256 258 261 261 263 264 265 265 265 265 265 265 266 263 260 262 266 266 265 266 266 264 nan nan nan nan nan nan nan 281 280 nan nan nan nan nan nan nan nan nan nan nan nan nan 290 290 292 294 294 294 297 303 307 308 310 310 307 303 299 293 287 284 283 282 282 281 nan nan nan nan nan nan nan nan nan
247 248 249 249 247 247 250 251 252 254 256 256 257 262 265 266 265 264 263 263 264 266 266 266 268 267 266 263 264 267 nan nan nan nan nan nan nan nan 273 276 nan nan nan nan nan nan nan nan nan nan nan nan nan nan nan nan nan 294 293 296 302 307 308 306 305 307 308 306 299 289 283 280 279 277 278 277 274 nan nan nan nan nan nan nan nan
247 250 247 248 248 249 249 249 251 253 253 253 254 255 257 259 259 262 263 263 264 266 267 269 268 266 265 263 262 nan nan nan nan nan nan nan nan nan 277 nan nan nan nan nan nan nan nan nan nan nan nan nan nan nan nan nan nan nan nan nan nan nan 301 304 308 312 311 302 288 277 273 279 282 280 279 275 268 nan nan nan nan nan nan nan nan
245 246 249 250 252 251 251 252 252 250 253 253 253 254 255 257 261 261 263 264 265 265 264 263 262 264 263 263 263 265 266 270 273 274 276 275 275 276 277 nan nan nan nan nan nan nan nan nan nan nan nan nan nan nan nan nan nan nan nan nan nan nan nan nan nan nan nan nan nan 277 275 284 287 277 264 261 263 nan nan nan nan nan nan nan nan
246 245 244 245 250 252 252 253 255 256 255 255 257 259 260 262 263 265 266 268 268 267 267 266 266 nan nan 266 267 266 269 273 273 274 274 275 276 278 nan nan nan nan nan nan nan nan nan nan nan nan nan nan nan nan nan nan nan nan nan nan nan nan nan nan nan nan nan nan nan 272 280 292 283 259 nan nan nan nan nan nan nan nan nan nan nan
249 248 243 242 252 251 253 252 252 252 254 256 258 261 263 265 266 267 268 268 268 269 269 270 nan nan nan nan nan 268 269 nan nan nan nan nan nan nan nan nan nan nan nan nan nan nan nan nan nan nan nan nan nan nan nan nan nan nan nan nan nan nan nan nan nan nan nan nan 265 264 273 265 252 nan nan nan nan nan nan nan nan nan nan nan nan
245 244 244 241 245 250 248 249 251 252 255 255 255 257 257 260 264 267 269 271 272 271 272 272 nan nan nan nan nan nan 273 nan nan nan nan nan nan nan nan nan nan nan nan nan nan nan nan nan nan nan nan nan nan nan nan nan nan nan nan nan nan nan nan nan nan nan nan nan 257 nan nan nan nan nan nan nan nan nan nan nan nan nan nan nan nan
248 248 247 248 247 250 252 252 252 252 255 257 258 260 260 260 262 264 266 269 270 272 272 272 271 271 nan nan nan nan 273 275 nan nan nan nan nan nan nan nan nan nan nan nan nan nan nan nan nan nan nan nan nan nan nan nan nan nan nan nan nan nan nan nan nan nan nan nan nan nan nan nan nan nan nan nan nan nan nan nan nan nan nan nan nan
246 246 246 247 249 251 254 256 258 259 258 257 256 258 262 264 266 267 267 268 269 271 273 273 273 274 nan nan nan nan 275 276 nan nan nan nan nan nan nan nan nan nan nan nan nan nan nan nan nan nan nan nan nan nan nan nan nan nan nan nan nan nan nan nan nan nan nan nan nan nan nan nan nan nan nan nan nan nan nan nan nan nan nan nan nan
248 249 249 250 250 250 251 255 255 255 256 257 257 257 259 263 266 269 272 273 272 273 nan 271 271 273 274 275 275 272 270 273 nan nan nan nan nan nan nan nan nan nan nan nan nan nan nan nan nan nan nan nan nan nan nan nan nan nan nan nan nan nan nan nan nan nan nan nan nan nan nan nan nan nan nan nan nan nan nan nan nan nan nan nan nan
nan 248 251 252 251 251 250 250 253 256 257 259 259 261 261 262 265 268 271 274 nan nan nan nan nan nan nan 272 273 273 274 nan nan nan 275 nan nan nan nan nan nan nan nan nan nan nan nan nan nan nan nan nan nan nan nan nan nan nan nan nan nan nan nan nan nan nan nan nan nan nan nan nan nan nan nan nan nan nan nan nan nan nan nan nan nan
nan nan nan nan 248 248 248 248 248 251 253 255 257 259 261 264 267 267 269 270 268 nan nan nan nan nan nan nan nan nan nan nan nan nan nan nan nan nan nan nan nan nan nan nan nan nan nan nan nan nan nan nan nan nan nan nan nan nan nan nan nan nan nan nan nan nan nan nan nan nan nan nan nan nan nan nan nan nan nan nan nan nan nan nan nan
nan nan nan nan nan nan 249 250 251 252 254 255 257 257 258 259 nan nan nan nan nan nan nan nan nan nan nan nan nan nan nan nan nan nan nan nan nan nan nan 284 nan nan nan nan nan nan nan nan nan nan nan nan nan nan nan nan nan nan nan nan nan nan nan nan nan nan nan nan nan nan nan nan nan nan nan nan nan nan nan nan nan nan nan nan nan
nan nan nan nan nan nan nan nan nan nan 258 258 258 259 nan nan nan nan nan nan nan nan nan nan nan nan nan nan nan nan nan nan nan nan 276 277 278 280 281 283 284 nan nan nan nan nan nan nan nan nan nan nan nan nan nan nan nan nan nan nan nan nan nan nan nan nan nan nan nan nan nan nan nan nan nan nan nan nan nan nan nan nan nan nan nan
nan nan nan nan nan nan nan nan nan nan nan nan nan nan nan nan nan nan nan nan nan nan nan nan nan nan nan nan nan nan nan nan nan nan nan nan 275 278 280 281 281 281 281 284 nan nan nan nan nan nan nan nan nan nan nan nan nan nan nan nan nan nan nan nan nan nan nan nan nan nan nan nan nan nan nan nan nan nan nan nan nan nan nan nan nan
nan nan nan nan nan nan nan nan nan nan nan nan nan nan nan nan nan nan nan nan nan nan nan nan nan nan nan nan nan nan nan nan nan nan nan nan nan nan nan nan 274 278 283 282 281 nan nan nan nan nan nan nan nan nan nan nan nan nan nan nan nan nan nan nan nan nan nan nan nan nan nan nan nan nan nan nan nan nan nan nan nan nan nan nan nan
nan nan nan nan nan nan nan nan nan nan nan nan nan nan nan nan nan nan nan nan nan nan nan nan nan nan nan nan nan nan nan nan nan nan nan nan nan nan nan nan nan nan nan nan nan nan nan nan nan nan nan nan nan nan nan nan nan nan nan nan nan nan nan nan nan nan nan nan nan nan nan nan nan nan nan nan nan nan nan nan nan nan nan nan nan